| time (UTC) | temp F | wind direction | speed MPH | gust MPH | rain 1hr in | rain 24hr in | rain mn in | humidity % | barometer mb |
| 20260502214003 | 55 | 109 | 1.0 | 1.0 | 0.00 | 0.00 | 0.00 | 64 | 1023.9 |
| 20260502213715 | 56 | 109 | 0.0 | 1.0 | 0.00 | 0.00 | 0.00 | 64 | 1023.9 |
| 20260502213213 | 55 | 109 | 0.0 | 1.0 | 0.00 | 0.00 | 0.00 | 63 | 1023.7 |
| 20260502212503 | 55 | 110 | 1.0 | 2.0 | 0.00 | 0.00 | 0.00 | 64 | 1024.1 |
| 20260502212004 | 56 | 113 | 1.0 | 3.0 | 0.00 | 0.00 | 0.00 | 65 | 1024.0 |
| 20260502211503 | 56 | 117 | 2.0 | 3.0 | 0.00 | 0.00 | 0.00 | 63 | 1023.9 |
| 20260502211003 | 56 | 117 | 2.0 | 3.0 | 0.00 | 0.00 | 0.00 | 62 | 1024.2 |
| 20260502210503 | 56 | 113 | 1.0 | 3.0 | 0.00 | 0.00 | 0.00 | 62 | 1023.8 |
| 20260502210004 | 56 | 115 | 1.0 | 3.0 | 0.00 | 0.00 | 0.00 | 62 | 1023.9 |
| 20260502205504 | 56 | 108 | 1.0 | 3.0 | 0.00 | 0.00 | 0.00 | 62 | 1023.9 |
| 20260502205003 | 56 | 106 | 2.0 | 3.0 | 0.00 | 0.00 | 0.00 | 63 | 1023.9 |
| 20260502204503 | 57 | 109 | 2.0 | 3.0 | 0.00 | 0.00 | 0.00 | 61 | 1023.9 |
| 20260502204003 | 57 | 110 | 2.0 | 3.0 | 0.00 | 0.00 | 0.00 | 63 | 1023.9 |
| 20260502203716 | 57 | 111 | 2.0 | 3.0 | 0.00 | 0.00 | 0.00 | 62 | 1024.0 |
| 20260502203003 | 58 | 115 | 2.0 | 4.0 | 0.00 | 0.00 | 0.00 | 62 | 1024.1 |
| 20260502202504 | 58 | 106 | 3.0 | 4.0 | 0.00 | 0.00 | 0.00 | 61 | 1024.1 |
| 20260502202003 | 58 | 99 | 3.0 | 4.0 | 0.00 | 0.00 | 0.00 | 62 | 1024.2 |
| 20260502201503 | 58 | 97 | 2.0 | 4.0 | 0.00 | 0.00 | 0.00 | 61 | 1024.1 |
| 20260502201003 | 59 | 95 | 3.0 | 6.0 | 0.00 | 0.00 | 0.00 | 60 | 1024.3 |
| 20260502200503 | 59 | 90 | 3.0 | 6.0 | 0.00 | 0.00 | 0.00 | 59 | 1024.1 |
| 20260502200004 | 59 | 87 | 3.0 | 6.0 | 0.00 | 0.00 | 0.00 | 60 | 1024.1 |
| 20260502195714 | 59 | 85 | 4.0 | 6.0 | 0.00 | 0.00 | 0.00 | 60 | 1024.1 |
| 20260502195003 | 60 | 91 | 3.0 | 6.0 | 0.00 | 0.00 | 0.00 | 59 | 1024.0 |
| 20260502194503 | 60 | 98 | 3.0 | 4.0 | 0.00 | 0.00 | 0.00 | 59 | 1023.9 |
| 20260502194004 | 60 | 103 | 2.0 | 4.0 | 0.00 | 0.00 | 0.00 | 59 | 1023.8 |
| 20260502193503 | 60 | 114 | 1.0 | 3.0 | 0.00 | 0.00 | 0.00 | 58 | 1024.1 |
| 20260502193214 | 60 | 115 | 1.0 | 3.0 | 0.00 | 0.00 | 0.00 | 58 | 1023.8 |
| 20260502192503 | 61 | 124 | 3.0 | 4.0 | 0.00 | 0.00 | 0.00 | 58 | 1024.0 |
| 20260502192003 | 62 | 124 | 3.0 | 4.0 | 0.00 | 0.00 | 0.00 | 56 | 1023.9 |
| 20260502191503 | 62 | 114 | 3.0 | 4.0 | 0.00 | 0.00 | 0.00 | 56 | 1023.7 |
| 20260502191003 | 62 | 112 | 3.0 | 4.0 | 0.00 | 0.00 | 0.00 | 56 | 1023.7 |
| 20260502190503 | 62 | 128 | 2.0 | 4.0 | 0.00 | 0.00 | 0.00 | 57 | 1023.8 |
| 20260502190217 | 61 | 140 | 1.0 | 4.0 | 0.00 | 0.00 | 0.00 | 57 | 1023.8 |
| 20260502185715 | 62 | 129 | 1.0 | 3.0 | 0.00 | 0.00 | 0.00 | 58 | 1023.8 |
| 20260502185004 | 62 | 111 | 2.0 | 3.0 | 0.00 | 0.00 | 0.00 | 58 | 1023.8 |
| 20260502184503 | 62 | 115 | 2.0 | 3.0 | 0.00 | 0.00 | 0.00 | 58 | 1023.8 |
| 20260502184004 | 63 | 131 | 2.0 | 3.0 | 0.00 | 0.00 | 0.00 | 56 | 1023.9 |
| 20260502183717 | 63 | 135 | 2.0 | 3.0 | 0.00 | 0.00 | 0.00 | 56 | 1023.5 |
| 20260502183003 | 63 | 118 | 3.0 | 4.0 | 0.00 | 0.00 | 0.00 | 56 | 1023.4 |
| 20260502182503 | 63 | 117 | 3.0 | 6.0 | 0.00 | 0.00 | 0.00 | 56 | 1023.4 |
| 20260502182216 | 63 | 120 | 3.0 | 6.0 | 0.00 | 0.00 | 0.00 | 56 | 1023.6 |
| 20260502181714 | 63 | 126 | 2.0 | 4.0 | 0.00 | 0.00 | 0.00 | 56 | 1023.4 |
| 20260502181003 | 64 | 130 | 3.0 | 4.0 | 0.00 | 0.00 | 0.00 | 56 | 1023.4 |
| 20260502180503 | 64 | 129 | 3.0 | 4.0 | 0.00 | 0.00 | 0.00 | 55 | 1023.3 |
| 20260502170503 | 69 | 159 | 4.0 | 9.0 | 0.00 | 0.00 | 0.00 | 49 | 1023.3 |
| 20260502164003 | 71 | 208 | 4.0 | 10.0 | 0.00 | 0.00 | 0.00 | 36 | 1023.3 |
| 20260502163504 | 72 | 209 | 4.0 | 8.0 | 0.00 | 0.00 | 0.00 | 36 | 1023.4 |
| 20260502163003 | 72 | 223 | 4.0 | 9.0 | 0.00 | 0.00 | 0.00 | 35 | 1023.5 |
| 20260502162714 | 72 | 227 | 5.0 | 10.0 | 0.00 | 0.00 | 0.00 | 34 | 1023.5 |
| 20260502162003 | 72 | 226 | 5.0 | 10.0 | 0.00 | 0.00 | 0.00 | 35 | 1023.5 |
| 20260502161715 | 72 | 223 | 4.0 | 8.0 | 0.00 | 0.00 | 0.00 | 35 | 1023.7 |
| 20260502161213 | 72 | 219 | 5.0 | 9.0 | 0.00 | 0.00 | 0.00 | 34 | 1023.5 |
| 20260502160503 | 72 | 205 | 5.0 | 10.0 | 0.00 | 0.00 | 0.00 | 34 | 1023.5 |
| 20260502152213 | 73 | 209 | 5.0 | 9.0 | 0.00 | 0.00 | 0.00 | 35 | 1023.8 |
| 20260502151504 | 73 | 227 | 5.0 | 9.0 | 0.00 | 0.00 | 0.00 | 35 | 1023.9 |
| 20260502151003 | 73 | 234 | 4.0 | 10.0 | 0.00 | 0.00 | 0.00 | 35 | 1024.1 |
| 20260502150503 | 74 | 231 | 5.0 | 10.0 | 0.00 | 0.00 | 0.00 | 35 | 1024.2 |
| 20260502130718 | 73 | 222 | 7.0 | 14.0 | 0.00 | 0.00 | 0.00 | 39 | 1024.9 |
| 20260502123503 | 73 | 210 | 6.0 | 10.0 | 0.00 | 0.00 | 0.00 | 36 | 1025.5 |
| 20260502123003 | 74 | 232 | 6.0 | 13.0 | 0.00 | 0.00 | 0.00 | 36 | 1025.5 |
| 20260502122503 | 73 | 236 | 6.0 | 13.0 | 0.00 | 0.00 | 0.00 | 36 | 1025.7 |
| 20260502122003 | 74 | 234 | 5.0 | 13.0 | 0.00 | 0.00 | 0.00 | 37 | 1025.7 |
| 20260502121503 | 74 | 234 | 4.0 | 13.0 | 0.00 | 0.00 | 0.00 | 36 | 1025.8 |
| 20260502121003 | 74 | 243 | 4.0 | 13.0 | 0.00 | 0.00 | 0.00 | 38 | 1025.8 |
| 20260502120504 | 75 | 246 | 4.0 | 9.0 | 0.00 | 0.00 | 0.00 | 34 | 1025.7 |
| 20260502115503 | 74 | 232 | 4.0 | 10.0 | 0.00 | 0.00 | 0.00 | 35 | 1025.9 |
| 20260502115003 | 74 | 230 | 4.0 | 10.0 | 0.00 | 0.00 | 0.00 | 35 | 1025.9 |
| 20260502114503 | 72 | 253 | 5.0 | 13.0 | 0.00 | 0.00 | 0.00 | 37 | 1026.0 |
| 20260502114003 | 73 | 245 | 6.0 | 13.0 | 0.00 | 0.00 | 0.00 | 37 | 1026.1 |
| 20260502113716 | 73 | 235 | 6.0 | 10.0 | 0.00 | 0.00 | 0.00 | 38 | 1026.1 |
| 20260502113004 | 73 | 220 | 6.0 | 10.0 | 0.00 | 0.00 | 0.00 | 37 | 1026.3 |
| 20260502112503 | 72 | 207 | 5.0 | 8.0 | 0.00 | 0.00 | 0.00 | 40 | 1026.3 |
| 20260502112003 | 72 | 247 | 5.0 | 11.0 | 0.00 | 0.00 | 0.00 | 40 | 1026.4 |
| 20260502111713 | 72 | 246 | 5.0 | 11.0 | 0.00 | 0.00 | 0.00 | 39 | 1026.2 |
| 20260502111003 | 72 | 243 | 6.0 | 10.0 | 0.00 | 0.00 | 0.00 | 41 | 1026.4 |
| 20260502110503 | 73 | 246 | 5.0 | 10.0 | 0.00 | 0.00 | 0.00 | 36 | 1026.3 |
| 20260502110004 | 73 | 241 | 5.0 | 9.0 | 0.00 | 0.00 | 0.00 | 37 | 1026.5 |
| 20260502105715 | 72 | 244 | 4.0 | 9.0 | 0.00 | 0.00 | 0.00 | 38 | 1026.6 |
| 20260502105003 | 73 | 277 | 4.0 | 11.0 | 0.00 | 0.00 | 0.00 | 37 | 1026.7 |
| 20260502104504 | 72 | 277 | 5.0 | 11.0 | 0.00 | 0.00 | 0.00 | 34 | 1026.7 |
| 20260502104003 | 73 | 275 | 5.0 | 11.0 | 0.00 | 0.00 | 0.00 | 32 | 1026.7 |
| 20260502103503 | 72 | 307 | 5.0 | 9.0 | 0.00 | 0.00 | 0.00 | 34 | 1026.9 |
| 20260502103003 | 72 | 323 | 4.0 | 9.0 | 0.00 | 0.00 | 0.00 | 33 | 1026.8 |
| 20260502102503 | 73 | 268 | 4.0 | 10.0 | 0.00 | 0.00 | 0.00 | 32 | 1026.9 |
| 20260502102003 | 72 | 254 | 4.0 | 10.0 | 0.00 | 0.00 | 0.00 | 34 | 1026.9 |
| 20260502101504 | 72 | 264 | 3.0 | 10.0 | 0.00 | 0.00 | 0.00 | 35 | 1027.0 |
| 20260502101217 | 72 | 249 | 3.0 | 9.0 | 0.00 | 0.00 | 0.00 | 33 | 1026.9 |
| 20260502100715 | 71 | 247 | 3.0 | 9.0 | 0.00 | 0.00 | 0.00 | 34 | 1027.1 |
| 20260502091503 | 71 | 145 | 2.0 | 6.0 | 0.00 | 0.00 | 0.00 | 37 | 1027.7 |
| 20260502091003 | 70 | 100 | 1.0 | 3.0 | 0.00 | 0.00 | 0.00 | 36 | 1027.6 |
| 20260502090504 | 69 | 284 | 2.0 | 4.0 | 0.00 | 0.00 | 0.00 | 34 | 1027.8 |
| 20260502071003 | 64 | 128 | 1.0 | 2.0 | 0.00 | 0.00 | 0.00 | 50 | 1028.5 |
| 20260502070717 | 64 | 116 | 1.0 | 2.0 | 0.00 | 0.00 | 0.00 | 50 | 1028.3 |
| 20260502070004 | 64 | 142 | 1.0 | 3.0 | 0.00 | 0.00 | 0.00 | 51 | 1028.5 |
| 20260502065504 | 62 | 148 | 1.0 | 3.0 | 0.00 | 0.00 | 0.00 | 53 | 1028.7 |
| 20260502065004 | 63 | 158 | 1.0 | 2.0 | 0.00 | 0.00 | 0.00 | 51 | 1028.5 |
| 20260502064506 | 60 | 158 | 1.0 | 2.0 | 0.00 | 0.00 | 0.00 | 54 | 1028.6 |
| 20260502064003 | 61 | 149 | 1.0 | 2.0 | 0.00 | 0.00 | 0.00 | 54 | 1028.7 |
| 20260502063503 | 60 | 152 | 1.0 | 2.0 | 0.00 | 0.00 | 0.00 | 57 | 1028.6 |
| 20260502063003 | 59 | 143 | 1.0 | 2.0 | 0.00 | 0.00 | 0.00 | 57 | 1028.6 |
| 20260502062503 | 60 | 119 | 0.0 | 1.0 | 0.00 | 0.00 | 0.00 | 55 | 1028.7 |
| 20260502062003 | 59 | 134 | 1.0 | 1.0 | 0.00 | 0.00 | 0.00 | 57 | 1028.6 |
| 20260502061503 | 57 | 142 | 1.0 | 1.0 | 0.00 | 0.00 | 0.00 | 60 | 1028.6 |
| 20260502061003 | 58 | 132 | 0.0 | 1.0 | 0.00 | 0.00 | 0.00 | 60 | 1028.7 |
| 20260502060503 | 58 | 123 | 0.0 | 1.0 | 0.00 | 0.00 | 0.00 | 58 | 1028.7 |
| 20260502060004 | 58 | 121 | 0.0 | 1.0 | 0.00 | 0.00 | 0.00 | 59 | 1028.7 |
| 20260502055713 | 58 | 123 | 0.0 | 1.0 | 0.00 | 0.00 | 0.00 | 60 | 1028.9 |
| 20260502055216 | 56 | 133 | 0.0 | 1.0 | 0.00 | 0.00 | 0.00 | 62 | 1028.7 |
| 20260502054503 | 54 | 111 | 0.0 | 1.0 | 0.00 | 0.00 | 0.00 | 66 | 1028.6 |
| 20260502054004 | 53 | 97 | 0.0 | 2.0 | 0.00 | 0.00 | 0.00 | 67 | 1029.0 |
| 20260502053503 | 52 | 104 | 0.0 | 2.0 | 0.00 | 0.00 | 0.00 | 69 | 1028.6 |
| 20260502053004 | 52 | 174 | 1.0 | 3.0 | 0.00 | 0.00 | 0.00 | 69 | 1028.8 |
| 20260502052503 | 51 | 199 | 2.0 | 3.0 | 0.00 | 0.00 | 0.00 | 70 | 1028.9 |
| 20260502052003 | 50 | 215 | 1.0 | 3.0 | 0.00 | 0.00 | 0.00 | 70 | 1029.0 |
| 20260502051717 | 50 | 203 | 1.0 | 2.0 | 0.00 | 0.00 | 0.00 | 70 | 1028.9 |
| 20260502051003 | 50 | 122 | 1.0 | 1.0 | 0.00 | 0.00 | 0.00 | 71 | 1028.8 |
| 20260502050503 | 49 | 122 | 1.0 | 1.0 | 0.00 | 0.00 | 0.00 | 71 | 1028.9 |
| 20260502050004 | 49 | 112 | 0.0 | 1.0 | 0.00 | 0.00 | 0.00 | 70 | 1028.9 |
| 20260502045503 | 49 | 104 | 0.0 | 1.0 | 0.00 | 0.00 | 0.00 | 71 | 1028.7 |
| 20260502045004 | 49 | 0 | 0.0 | 1.0 | 0.00 | 0.00 | 0.00 | 72 | 1028.7 |
| 20260502044504 | 48 | 127 | 0.0 | 1.0 | 0.00 | 0.00 | 0.00 | 74 | 1028.9 |
| 20260502044004 | 47 | 130 | 0.0 | 1.0 | 0.00 | 0.00 | 0.00 | 76 | 1028.8 |
| 20260502043716 | 47 | 120 | 0.0 | 1.0 | 0.00 | 0.00 | 0.00 | 76 | 1028.8 |
| 20260502043003 | 46 | 111 | 0.0 | 1.0 | 0.00 | 0.00 | 0.00 | 78 | 1028.8 |
| 20260502042503 | 45 | 0 | 0.0 | 0.0 | 0.00 | 0.00 | 0.00 | 79 | 1028.8 |
| 20260502042003 | 46 | 0 | 0.0 | 0.0 | 0.00 | 0.00 | 0.00 | 78 | 1028.7 |
| 20260502041504 | 45 | 0 | 0.0 | 0.0 | 0.00 | 0.00 | 0.00 | 77 | 1028.4 |
| 20260502041003 | 46 | 0 | 0.0 | 1.0 | 0.00 | 0.00 | 0.00 | 76 | 1028.7 |
| 20260502040503 | 46 | 59 | 0.0 | 2.0 | 0.00 | 0.00 | 0.00 | 76 | 1028.7 |
| 20260502040005 | 46 | 87 | 1.0 | 3.0 | 0.00 | 0.00 | 0.00 | 74 | 1028.6 |
| 20260502035503 | 47 | 118 | 1.0 | 3.0 | 0.00 | 0.00 | 0.00 | 73 | 1028.9 |
| 20260502035003 | 46 | 114 | 0.0 | 2.0 | 0.00 | 0.00 | 0.00 | 75 | 1028.9 |
| 20260502034715 | 46 | 109 | 0.0 | 1.0 | 0.00 | 0.00 | 0.00 | 77 | 1028.9 |
| 20260502034003 | 46 | 139 | 0.0 | 2.0 | 0.00 | 0.00 | 0.00 | 77 | 1028.9 |
| 20260502033503 | 46 | 115 | 0.0 | 2.0 | 0.00 | 0.00 | 0.00 | 76 | 1028.7 |
| 20260502033003 | 47 | 72 | 1.0 | 2.0 | 0.00 | 0.00 | 0.00 | 74 | 1028.5 |
| 20260502032503 | 47 | 76 | 1.0 | 2.0 | 0.00 | 0.00 | 0.00 | 73 | 1028.7 |
| 20260502032003 | 46 | 91 | 1.0 | 2.0 | 0.00 | 0.00 | 0.00 | 75 | 1028.6 |
| 20260502031503 | 45 | 101 | 1.0 | 2.0 | 0.00 | 0.00 | 0.00 | 79 | 1028.7 |
| 20260502031003 | 46 | 147 | 1.0 | 2.0 | 0.00 | 0.00 | 0.00 | 78 | 1028.7 |
| 20260502030503 | 46 | 170 | 1.0 | 2.0 | 0.00 | 0.00 | 0.00 | 77 | 1028.8 |
| 20260502030004 | 46 | 132 | 1.0 | 2.0 | 0.00 | 0.00 | 0.00 | 76 | 1028.8 |
| 20260502025715 | 47 | 85 | 1.0 | 4.0 | 0.00 | 0.00 | 0.00 | 75 | 1028.7 |
| 20260502025003 | 49 | 89 | 1.0 | 4.0 | 0.00 | 0.00 | 0.00 | 70 | 1028.6 |
| 20260502024503 | 50 | 118 | 1.0 | 7.0 | 0.00 | 0.00 | 0.00 | 67 | 1028.5 |
| 20260502024214 | 51 | 116 | 2.0 | 7.0 | 0.00 | 0.00 | 0.00 | 63 | 1028.8 |
| 20260502023503 | 47 | 123 | 1.0 | 7.0 | 0.00 | 0.00 | 0.00 | 69 | 1028.8 |
| 20260502023003 | 47 | 129 | 1.0 | 2.0 | 0.00 | 0.00 | 0.00 | 76 | 1028.8 |
| 20260502022503 | 47 | 127 | 1.0 | 2.0 | 0.00 | 0.00 | 0.00 | 74 | 1028.6 |
| 20260502022216 | 47 | 114 | 1.0 | 2.0 | 0.00 | 0.00 | 0.00 | 75 | 1028.4 |
| 20260502021503 | 46 | 98 | 1.0 | 2.0 | 0.00 | 0.00 | 0.00 | 77 | 1028.6 |
| 20260502021003 | 47 | 104 | 1.0 | 2.0 | 0.00 | 0.00 | 0.00 | 75 | 1028.9 |
| 20260502020503 | 47 | 101 | 1.0 | 2.0 | 0.00 | 0.00 | 0.00 | 75 | 1029.0 |
| 20260502020004 | 46 | 98 | 1.0 | 2.0 | 0.00 | 0.00 | 0.00 | 75 | 1028.6 |
| 20260502015503 | 47 | 109 | 1.0 | 2.0 | 0.00 | 0.00 | 0.00 | 75 | 1028.7 |
| 20260502015003 | 47 | 118 | 0.0 | 1.0 | 0.00 | 0.00 | 0.00 | 76 | 1028.8 |
| 20260502014717 | 47 | 123 | 0.0 | 1.0 | 0.00 | 0.00 | 0.00 | 77 | 1028.9 |
| 20260502014003 | 46 | 159 | 0.0 | 2.0 | 0.00 | 0.00 | 0.00 | 77 | 1029.0 |
| 20260502013503 | 46 | 185 | 1.0 | 2.0 | 0.00 | 0.00 | 0.00 | 77 | 1029.0 |
| 20260502013003 | 47 | 186 | 1.0 | 2.0 | 0.00 | 0.00 | 0.00 | 76 | 1028.9 |
| 20260502012503 | 48 | 167 | 0.0 | 2.0 | 0.00 | 0.00 | 0.00 | 72 | 1028.8 |
| 20260502012003 | 47 | 148 | 0.0 | 1.0 | 0.00 | 0.00 | 0.00 | 74 | 1028.7 |
| 20260502011714 | 47 | 148 | 0.0 | 2.0 | 0.00 | 0.00 | 0.00 | 74 | 1028.9 |
| 20260502011212 | 48 | 151 | 1.0 | 2.0 | 0.00 | 0.00 | 0.00 | 73 | 1028.9 |
| 20260502010716 | 48 | 148 | 0.0 | 2.0 | 0.00 | 0.00 | 0.00 | 73 | 1028.9 |
| 20260502010219 | 49 | 133 | 0.0 | 1.0 | 0.00 | 0.00 | 0.00 | 71 | 1028.9 |
| 20260502005716 | 50 | 114 | 0.0 | 1.0 | 0.00 | 0.00 | 0.00 | 68 | 1028.8 |
| 20260502005214 | 51 | 100 | 0.0 | 2.0 | 0.00 | 0.00 | 0.00 | 66 | 1028.8 |
| 20260502004503 | 50 | 104 | 0.0 | 2.0 | 0.00 | 0.00 | 0.00 | 65 | 1028.8 |
| 20260502004215 | 49 | 108 | 0.0 | 2.0 | 0.00 | 0.00 | 0.00 | 68 | 1029.0 |
| 20260502003503 | 49 | 121 | 1.0 | 2.0 | 0.00 | 0.00 | 0.00 | 68 | 1028.9 |
| 20260502003004 | 49 | 112 | 1.0 | 2.0 | 0.00 | 0.00 | 0.00 | 69 | 1029.1 |
| 20260502002503 | 49 | 106 | 1.0 | 2.0 | 0.00 | 0.00 | 0.00 | 71 | 1029.0 |
| 20260502002003 | 49 | 104 | 0.0 | 2.0 | 0.00 | 0.00 | 0.00 | 70 | 1029.3 |
| 20260502001504 | 50 | 70 | 1.0 | 2.0 | 0.00 | 0.00 | 0.00 | 65 | 1029.0 |
| 20260502001003 | 50 | 66 | 1.0 | 2.0 | 0.00 | 0.00 | 0.00 | 66 | 1028.9 |
| 20260502000503 | 50 | 94 | 0.0 | 1.0 | 0.00 | 0.00 | 0.00 | 67 | 1028.9 |
| 20260502000007 | 51 | 95 | 0.0 | 1.0 | 0.00 | 0.00 | 0.00 | 65 | 1029.2 |
| 20260501235503 | 51 | 98 | 0.0 | 1.0 | 0.00 | 0.00 | 0.00 | 62 | 1029.0 |
| 20260501235215 | 50 | 98 | 0.0 | 1.0 | 0.00 | 0.00 | 0.00 | 63 | 1029.5 |
| 20260501234503 | 50 | 86 | 1.0 | 1.0 | 0.00 | 0.00 | 0.00 | 64 | 1029.3 |
| 20260501234003 | 49 | 85 | 1.0 | 1.0 | 0.00 | 0.00 | 0.00 | 66 | 1029.3 |
| 20260501233503 | 50 | 97 | 0.0 | 1.0 | 0.00 | 0.00 | 0.00 | 71 | 1029.3 |
| 20260501233003 | 50 | 109 | 0.0 | 1.0 | 0.00 | 0.00 | 0.00 | 70 | 1029.3 |
| 20260501232503 | 50 | 118 | 0.0 | 1.0 | 0.00 | 0.00 | 0.00 | 71 | 1029.4 |
| 20260501232003 | 50 | 116 | 1.0 | 2.0 | 0.00 | 0.00 | 0.00 | 71 | 1029.2 |
| 20260501231503 | 50 | 105 | 2.0 | 3.0 | 0.00 | 0.00 | 0.00 | 70 | 1029.4 |
| 20260501231003 | 51 | 97 | 1.0 | 3.0 | 0.00 | 0.00 | 0.00 | 69 | 1029.4 |
| 20260501230503 | 51 | 91 | 0.0 | 2.0 | 0.00 | 0.00 | 0.00 | 68 | 1029.3 |
| 20260501230004 | 51 | 96 | 0.0 | 1.0 | 0.00 | 0.00 | 0.00 | 68 | 1029.4 |
| 20260501225503 | 51 | 98 | 0.0 | 1.0 | 0.00 | 0.00 | 0.00 | 66 | 1029.4 |
| 20260501225003 | 51 | 106 | 0.0 | 1.0 | 0.00 | 0.00 | 0.00 | 65 | 1029.3 |
| 20260501224503 | 52 | 102 | 0.0 | 3.0 | 0.00 | 0.00 | 0.00 | 64 | 1029.4 |
| 20260501224003 | 52 | 89 | 1.0 | 3.0 | 0.00 | 0.00 | 0.00 | 64 | 1029.4 |
| 20260501223503 | 52 | 87 | 2.0 | 3.0 | 0.00 | 0.00 | 0.00 | 66 | 1029.5 |
| 20260501223004 | 51 | 94 | 2.0 | 3.0 | 0.00 | 0.00 | 0.00 | 70 | 1029.3 |
| 20260501222504 | 51 | 106 | 1.0 | 2.0 | 0.00 | 0.00 | 0.00 | 72 | 1029.4 |
| 20260501222004 | 53 | 118 | 1.0 | 3.0 | 0.00 | 0.00 | 0.00 | 70 | 1029.2 |
| 20260501221716 | 53 | 116 | 2.0 | 3.0 | 0.00 | 0.00 | 0.00 | 69 | 1029.4 |
| 20260501221003 | 53 | 107 | 2.0 | 3.0 | 0.00 | 0.00 | 0.00 | 68 | 1029.1 |
| 20260501220503 | 53 | 103 | 2.0 | 3.0 | 0.00 | 0.00 | 0.00 | 69 | 1029.1 |
| 20260501220004 | 53 | 103 | 2.0 | 4.0 | 0.00 | 0.00 | 0.00 | 69 | 1029.4 |
| 20260501215503 | 53 | 97 | 3.0 | 6.0 | 0.00 | 0.00 | 0.00 | 69 | 1029.2 |
| 20260501215003 | 54 | 95 | 3.0 | 6.0 | 0.00 | 0.00 | 0.00 | 68 | 1029.2 |
| 20260501214503 | 53 | 101 | 3.0 | 4.0 | 0.00 | 0.00 | 0.00 | 69 | 1029.2 |